When you browse on this site, cookies collect data to enhance your experience and personalize the content and advertising you see.
Visit our Privacy Policy to learn more. By continuing to use the site, you agree to this use of cookies and data.
  • In United Kingdom
  • List of Countries
  • For 7 days
  • Water Temperature
  • Satellite Maps
  • Weather Map
  • Weather Widgets
  • user-avatar
    Login

    Hourly Weather Shumanay

    Today, 20 March, Wednesday

    Time Temperature Precipitation Wind Pressure Humidity
    00:00 +7°C° 0 mm 5 mps 755 mmHg 55%
    01:00 +6°C° 0 mm 5 mps 755 mmHg 56%
    02:00 +6°C° 0 mm 5 mps 755 mmHg 57%
    03:00 +6°C° 0 mm 4 mps 755 mmHg 57%
    04:00 +6°C° 0 mm 4 mps 755 mmHg 59%
    05:00 +6°C° 0 mm 4 mps 755 mmHg 59%
    06:00 +6°C° 0 mm 4 mps 755 mmHg 60%
    07:00 +6°C° 0 mm 4 mps 756 mmHg 60%
    08:00 +8°C° 0 mm 4 mps 756 mmHg 55%
    09:00 +10°C° 0 mm 4 mps 756 mmHg 51%
    10:00 +12°C° 0 mm 3 mps 756 mmHg 47%
    11:00 +15°C° 0 mm 2 mps 756 mmHg 46%
    12:00 +16°C° 0 mm 2 mps 756 mmHg 44%
    13:00 +19°C° 0 mm 1 mps 756 mmHg 42%
    14:00 +18°C° 0 mm 2 mps 756 mmHg 41%
    15:00 +18°C° 0 mm 2 mps 756 mmHg 40%
    16:00 +18°C° 0 mm 2 mps 756 mmHg 40%
    17:00 +18°C° 0 mm 2 mps 756 mmHg 41%
    18:00 +17°C° 0 mm 3 mps 756 mmHg 42%
    19:00 +17°C° 0 mm 3 mps 756 mmHg 44%
    20:00 +14°C° 0 mm 4 mps 756 mmHg 47%
    21:00 +13°C° 0 mm 4 mps 756 mmHg 50%
    22:00 +12°C° 0 mm 4 mps 757 mmHg 53%
    23:00 +11°C° 0 mm 4 mps 756 mmHg 54%

    Tomorrow, 21 March, Thursday

    Time Temperature Precipitation Wind Pressure Humidity
    00:00 +11°C° 0 mm 4 mps 756 mmHg 56%
    01:00 +10°C° 0 mm 4 mps 756 mmHg 58%
    02:00 +10°C° 0 mm 4 mps 756 mmHg 58%
    03:00 +10°C° 0 mm 4 mps 756 mmHg 59%
    04:00 +10°C° 0 mm 3 mps 756 mmHg 59%
    05:00 +10°C° 0 mm 3 mps 757 mmHg 60%
    06:00 +9°C° 0 mm 3 mps 757 mmHg 61%
    07:00 +9°C° 0 mm 2 mps 757 mmHg 61%
    08:00 +10°C° 0 mm 2 mps 757 mmHg 60%
    09:00 +10°C° 0 mm 2 mps 757 mmHg 59%
    10:00 +12°C° 0 mm 2 mps 758 mmHg 58%
    11:00 +12°C° 0 mm 2 mps 758 mmHg 57%
    12:00 +13°C° 0 mm 2 mps 758 mmHg 56%
    13:00 +13°C° 0 mm 3 mps 758 mmHg 55%
    14:00 +13°C° 0 mm 3 mps 757 mmHg 54%
    15:00 +14°C° 0 mm 3 mps 757 mmHg 53%
    16:00 +14°C° 0 mm 4 mps 757 mmHg 52%
    17:00 +13°C° 0 mm 3 mps 757 mmHg 55%
    18:00 +13°C° 0 mm 3 mps 757 mmHg 57%
    19:00 +13°C° 0 mm 2 mps 758 mmHg 59%
    20:00 +13°C° 0 mm 2 mps 758 mmHg 60%
    21:00 +13°C° 0 mm 1 mps 758 mmHg 61%
    22:00 +12°C° 0 mm 1 mps 758 mmHg 63%
    23:00 +12°C° 0 mm 1 mps 758 mmHg 64%

    Day after tomorrow, 22 March, Friday

    Time Temperature Precipitation Wind Pressure Humidity
    00:00 +12°C° 0 mm 1 mps 758 mmHg 65%
    01:00 +11°C° 0 mm 1 mps 757 mmHg 66%
    02:00 +11°C° 0 mm 1 mps 757 mmHg 67%
    03:00 +11°C° 0 mm 1 mps 757 mmHg 68%
    04:00 +11°C° 0 mm 1 mps 757 mmHg 69%
    05:00 +11°C° 0 mm 1 mps 757 mmHg 68%
    06:00 +11°C° 0 mm 1 mps 758 mmHg 67%
    07:00 +11°C° 0 mm 1 mps 758 mmHg 66%
    08:00 +12°C° 0 mm 1 mps 758 mmHg 60%
    09:00 +14°C° 0 mm 1 mps 758 mmHg 55%
    10:00 +15°C° 0 mm 1 mps 758 mmHg 49%
    11:00 +16°C° 0 mm 2 mps 758 mmHg 46%
    12:00 +17°C° 0 mm 2 mps 758 mmHg 42%
    13:00 +18°C° 0 mm 3 mps 757 mmHg 39%
    14:00 +18°C° 0 mm 3 mps 757 mmHg 38%
    15:00 +18°C° 0 mm 3 mps 757 mmHg 37%
    16:00 +18°C° 0 mm 3 mps 756 mmHg 35%
    17:00 +17°C° 0 mm 2 mps 756 mmHg 37%
    18:00 +17°C° 0 mm 2 mps 756 mmHg 38%
    19:00 +16°C° 0 mm 1 mps 757 mmHg 39%
    20:00 +16°C° 0 mm 2 mps 757 mmHg 42%
    21:00 +15°C° 0 mm 2 mps 757 mmHg 44%
    22:00 +14°C° 0 mm 2 mps 757 mmHg 46%
    23:00 +14°C° 0 mm 2 mps 757 mmHg 50%

    23 March, Saturday

    Time Temperature Precipitation Wind Pressure Humidity
    00:00 +13°C° 0 mm 2 mps 757 mmHg 53%
    01:00 +12°C° 0 mm 2 mps 757 mmHg 57%
    02:00 +12°C° 0 mm 2 mps 757 mmHg 60%
    03:00 +12°C° 0 mm 2 mps 757 mmHg 63%
    04:00 +10°C° 0 mm 2 mps 757 mmHg 66%
    05:00 +10°C° 0 mm 2 mps 757 mmHg 68%
    06:00 +10°C° 0 mm 2 mps 757 mmHg 70%
    07:00 +10°C° 0 mm 3 mps 757 mmHg 73%
    08:00 +11°C° 0 mm 3 mps 757 mmHg 68%
    09:00 +12°C° 0 mm 3 mps 757 mmHg 64%
    10:00 +13°C° 0 mm 3 mps 757 mmHg 60%
    11:00 +14°C° 0 mm 3 mps 757 mmHg 54%
    12:00 +15°C° 0 mm 4 mps 757 mmHg 49%
    13:00 +15°C° 0 mm 5 mps 757 mmHg 43%
    14:00 +15°C° 0 mm 5 mps 756 mmHg 43%
    15:00 +15°C° 0 mm 5 mps 756 mmHg 42%
    16:00 +15°C° 0 mm 5 mps 756 mmHg 42%
    17:00 +15°C° 0 mm 4 mps 756 mmHg 44%
    18:00 +14°C° 0 mm 3 mps 756 mmHg 47%
    19:00 +15°C° 0 mm 2 mps 756 mmHg 49%
    20:00 +14°C° 0 mm 2 mps 757 mmHg 52%
    21:00 +13°C° 0 mm 1 mps 757 mmHg 55%
    22:00 +12°C° 0 mm 0 mps 757 mmHg 57%
    23:00 +12°C° 0 mm 1 mps 757 mmHg 58%

    24 March, Sunday

    Time Temperature Precipitation Wind Pressure Humidity
    00:00 +12°C° 0 mm 1 mps 756 mmHg 59%
    01:00 +12°C° 0 mm 2 mps 756 mmHg 60%
    02:00 +12°C° 0 mm 2 mps 756 mmHg 62%
    03:00 +10°C° 0 mm 2 mps 756 mmHg 63%
    04:00 +10°C° 0 mm 2 mps 756 mmHg 64%
    05:00 +10°C° 0 mm 2 mps 756 mmHg 64%
    06:00 +10°C° 0 mm 2 mps 756 mmHg 64%
    07:00 +10°C° 0 mm 3 mps 756 mmHg 63%
    08:00 +12°C° 0 mm 3 mps 756 mmHg 55%
    09:00 +14°C° 0 mm 4 mps 756 mmHg 47%
    10:00 +16°C° 0 mm 5 mps 756 mmHg 39%
    11:00 +17°C° 0 mm 5 mps 756 mmHg 36%
    12:00 +19°C° 0 mm 5 mps 756 mmHg 33%
    13:00 +20°C° 0 mm 5 mps 755 mmHg 31%
    14:00 +20°C° 0 mm 5 mps 755 mmHg 30%
    15:00 +21°C° 0 mm 5 mps 754 mmHg 28%
    16:00 +21°C° 0 mm 4 mps 754 mmHg 27%
    17:00 +20°C° 0 mm 4 mps 754 mmHg 30%
    18:00 +19°C° 0 mm 3 mps 753 mmHg 32%
    19:00 +18°C° 0 mm 3 mps 753 mmHg 34%
    20:00 +18°C° 0 mm 3 mps 753 mmHg 36%
    21:00 +17°C° 0 mm 3 mps 753 mmHg 38%
    22:00 +17°C° 0 mm 3 mps 753 mmHg 40%
    23:00 +16°C° 0 mm 3 mps 753 mmHg 42%

    25 March, Monday

    Time Temperature Precipitation Wind Pressure Humidity
    00:00 +16°C° 0 mm 3 mps 752 mmHg 44%
    01:00 +14°C° 0 mm 3 mps 752 mmHg 46%
    02:00 +14°C° 0 mm 3 mps 752 mmHg 47%
    03:00 +13°C° 0 mm 3 mps 752 mmHg 48%
    04:00 +14°C° 0 mm 2 mps 752 mmHg 49%
    05:00 +12°C° 0 mm 4 mps 752 mmHg 53%
    06:00 +10°C° 0 mm 5 mps 752 mmHg 57%
    07:00 +10°C° 0 mm 7 mps 752 mmHg 61%
    08:00 +9°C° 0 mm 7 mps 753 mmHg 60%
    09:00 +9°C° 0 mm 7 mps 753 mmHg 59%
    10:00 +9°C° 0 mm 8 mps 754 mmHg 59%
    11:00 +9°C° 0 mm 8 mps 754 mmHg 56%
    12:00 +10°C° 0 mm 8 mps 754 mmHg 53%
    13:00 +10°C° 0 mm 9 mps 754 mmHg 50%
    14:00 +10°C° 0 mm 8 mps 754 mmHg 49%
    15:00 +9°C° 0 mm 8 mps 755 mmHg 48%
    16:00 +9°C° 0 mm 8 mps 755 mmHg 47%
    17:00 +9°C° 0 mm 7 mps 756 mmHg 47%
    18:00 +8°C° 0 mm 5 mps 756 mmHg 48%
    19:00 +7°C° 0 mm 4 mps 757 mmHg 48%
    20:00 +8°C° 0 mm 3 mps 757 mmHg 48%
    21:00 +8°C° 0 mm 3 mps 758 mmHg 48%
    22:00 +8°C° 0 mm 2 mps 758 mmHg 48%
    23:00 +8°C° 0 mm 2 mps 758 mmHg 50%
    Show more